Weather past 2 weeks in Saint-Pierre, Saint Pierre and Miquelon

Now
57 °F

Partly sunny.


Feels Like: 54 °F
Forecast: 54 / 56 °F
Wind: 14 mph from Northeast

Location: Saint-Pierre

Current Time: Oct 1, 2014 at 1:35:41 PM

Latest Report: Oct 1, 2014 at 1:00 PM


Visibility: N/A

Pressure: 30.12 "Hg

Humidity: 77%

Dew point: 50 °F

Location of Saint-PierreLocation

Historic Weather in Saint-Pierre — Graph

°F

Saint-Pierre temperature yesterday

Maximum temperature yesterday: 52 °F (at 7:00 PM)
Minimum temperature yesterday: 48 °F (at 6:00 AM)
Average temperature yesterday: 50 °F

Past Weeks' High & Low Weather Summary

 TemperatureHumidityPressure
High64 °F (Sep 21, 1:00 PM)100% (Sep 18, 7:00 AM)30.48 "Hg (Sep 18, 7:00 AM)
Low45 °F (Sep 28, 6:00 AM)50% (Sep 24, 5:00 PM)29.62 "Hg (Sep 22, 5:00 PM)
Average56 °F81%30.03 "Hg
* Reported Sep 16 12:00 Noon — Oct 1 12:00 Noon, Saint-Pierre, Weather by CustomWeather, © 2014

Note: Actual official high and low records may vary slightly from our data, if they occured in-between our weather recording intervals... More about our weather records

Advertising

Saint-Pierre weather history for previous 24 hours

 ConditionsComfort  
Time TempWeatherWind HumidityBarometerVisibility
12:00 PM
Oct 1
57 °FPartly sunny.7 mph88%30.12 "HgN/A
11:00 AM55 °FPassing clouds.10 mph94%30.09 "HgN/A
10:00 AM54 °FPartly sunny.12 mph100%30.09 "HgN/A
9:00 AM52 °FScattered clouds.8 mph100%30.09 "HgN/A
8:00 AM50 °FPassing clouds.3 mph100%30.07 "Hg3 mi
7:00 AM50 °FFog.3 mph100%30.04 "Hg3 mi
6:00 AM50 °FFog.5 mph100%30.04 "Hg1 mi
9:00 PM
Sep 30
52 °FDrizzle. Fog.7 mph100%30.07 "Hg1 mi
8:00 PM52 °FDrizzle. Fog.6 mph100%30.07 "Hg1 mi
7:00 PM52 °FDrizzle. Low clouds.7 mph100%30.07 "Hg1 mi
6:00 PM50 °FDrizzle. Low clouds.9 mph100%30.09 "Hg1 mi
5:00 PM50 °FDrizzle. Low clouds.13 mph100%30.09 "Hg1 mi
4:00 PM50 °FDrizzle. Partly sunny.12 mph100%30.15 "Hg4 mi
3:00 PM50 °FDrizzle. Fog.15 mph94%30.15 "Hg2 mi
2:00 PM48 °FDrizzle. Low clouds.16 mph100%30.18 "Hg3 mi
1:00 PM48 °FDrizzle. Low clouds.20 mph94%30.21 "Hg4 mi
Weather by CustomWeather, © 2014

See weather overviewHow to use our weather pages